Total_Precipitation_Accumulation
0.12 0.10 0.10 0.14 0.10 0.07 0.03 0.01 0.01 0.01 0.01 0.01 0.02 0.02 0.01 0.03 0.03 0.05 0.06 0.05 0.03 0.05 0.16 0.35 0.52 0.60 0.66 0.66 0.62 0.59 0.59 0.60 0.65 0.69 0.70 0.70 0.72 0.76 0.83 0.84 0.81 0.80 0.76 0.76 0.82 0.85 0.84 0.80 0.75
0.14 0.15 0.17 0.20 0.12 0.06 0.03 0.02 0.00 0.00 0.00 0.01 0.01 0.01 0.02 0.03 0.02 0.03 0.07 0.09 0.05 0.06 0.15 0.28 0.49 0.59 0.65 0.66 0.66 0.68 0.71 0.71 0.76 0.78 0.75 0.71 0.73 0.78 0.83 0.83 0.82 0.80 0.76 0.74 0.75 0.72 0.72 0.66 0.58
0.24 0.28 0.26 0.22 0.10 0.05 0.04 0.02 0.01 0.00 0.00 0.00 0.01 0.01 0.03 0.04 0.04 0.05 0.09 0.12 0.09 0.09 0.16 0.32 0.52 0.63 0.66 0.71 0.72 0.73 0.76 0.82 0.85 0.84 0.82 0.82 0.83 0.83 0.85 0.84 0.82 0.77 0.74 0.75 0.74 0.67 0.64 0.61 0.57
0.35 0.39 0.32 0.19 0.06 0.03 0.03 0.02 0.00 0.00 0.00 0.00 0.01 0.02 0.02 0.03 0.04 0.08 0.11 0.17 0.15 0.15 0.21 0.37 0.55 0.69 0.73 0.76 0.76 0.78 0.81 0.85 0.88 0.85 0.83 0.85 0.93 0.92 0.85 0.80 0.82 0.76 0.73 0.74 0.75 0.69 0.67 0.60 0.54
0.47 0.43 0.31 0.14 0.03 0.01 0.01 0.02 0.01 0.00 0.00 0.01 0.01 0.02 0.04 0.04 0.05 0.10 0.15 0.22 0.24 0.23 0.28 0.42 0.61 0.75 0.82 0.85 0.88 0.92 0.93 0.93 0.91 0.89 0.85 0.85 0.87 0.91 0.88 0.79 0.77 0.74 0.72 0.74 0.75 0.71 0.68 0.65 0.58
0.57 0.46 0.26 0.10 0.03 0.02 0.01 0.01 0.01 0.01 0.01 0.02 0.03 0.03 0.06 0.08 0.10 0.13 0.15 0.21 0.25 0.29 0.36 0.53 0.77 0.88 0.92 0.95 0.92 0.99 1.06 1.08 1.05 0.99 0.94 0.93 0.90 0.87 0.88 0.80 0.77 0.78 0.74 0.70 0.67 0.65 0.62 0.60 0.58
0.64 0.45 0.22 0.07 0.04 0.04 0.02 0.01 0.01 0.01 0.01 0.02 0.03 0.05 0.08 0.14 0.18 0.17 0.18 0.22 0.26 0.32 0.43 0.60 0.83 0.95 1.07 1.09 1.02 1.01 1.03 1.12 1.12 1.07 1.03 0.99 0.93 0.88 0.85 0.82 0.77 0.78 0.79 0.75 0.65 0.62 0.61 0.55 0.52
0.68 0.58 0.29 0.10 0.06 0.03 0.02 0.02 0.02 0.02 0.02 0.02 0.04 0.07 0.08 0.15 0.20 0.25 0.27 0.28 0.34 0.40 0.52 0.67 0.85 0.97 1.09 1.17 1.12 1.06 1.06 1.09 1.16 1.12 1.06 1.02 1.00 0.97 0.89 0.79 0.82 0.80 0.77 0.81 0.75 0.68 0.69 0.63 0.53
0.82 0.76 0.38 0.14 0.08 0.05 0.04 0.04 0.04 0.03 0.04 0.05 0.05 0.07 0.09 0.16 0.24 0.33 0.40 0.44 0.46 0.55 0.67 0.80 0.91 1.03 1.16 1.23 1.16 1.19 1.18 1.20 1.26 1.24 1.21 1.15 1.11 1.10 1.01 0.84 0.80 0.85 0.83 0.82 0.81 0.75 0.74 0.73 0.59
0.90 0.72 0.33 0.14 0.11 0.10 0.07 0.07 0.06 0.07 0.07 0.07 0.07 0.11 0.15 0.26 0.36 0.38 0.41 0.45 0.50 0.58 0.73 0.87 0.97 1.09 1.27 1.33 1.33 1.39 1.30 1.26 1.30 1.21 1.18 1.21 1.20 1.23 1.12 1.03 0.91 0.88 0.90 0.91 0.89 0.85 0.81 0.76 0.64
0.75 0.53 0.27 0.17 0.16 0.16 0.13 0.09 0.08 0.10 0.08 0.08 0.10 0.13 0.21 0.30 0.40 0.44 0.44 0.47 0.51 0.60 0.74 0.89 1.03 1.18 1.35 1.38 1.37 1.37 1.37 1.29 1.32 1.32 1.22 1.20 1.26 1.22 1.25 1.21 1.18 1.10 1.03 1.01 1.01 1.00 0.92 0.83 0.73
0.65 0.42 0.28 0.21 0.20 0.23 0.20 0.16 0.13 0.10 0.08 0.09 0.12 0.16 0.22 0.32 0.37 0.42 0.51 0.58 0.62 0.70 0.80 0.94 1.10 1.28 1.44 1.46 1.48 1.41 1.31 1.26 1.23 1.33 1.35 1.30 1.24 1.14 1.06 1.06 1.04 1.05 1.03 1.03 1.04 1.00 0.93 0.91 0.83
0.61 0.43 0.30 0.23 0.22 0.23 0.23 0.20 0.18 0.11 0.07 0.11 0.15 0.21 0.26 0.31 0.35 0.43 0.55 0.65 0.71 0.76 0.87 0.96 1.11 1.25 1.45 1.66 1.64 1.60 1.46 1.30 1.26 1.31 1.36 1.33 1.27 1.17 1.06 0.99 1.02 0.98 0.93 0.94 0.96 0.89 0.82 0.79 0.76
0.54 0.44 0.35 0.28 0.25 0.24 0.25 0.22 0.22 0.14 0.12 0.17 0.21 0.23 0.30 0.34 0.40 0.51 0.58 0.66 0.74 0.82 0.94 1.04 1.16 1.24 1.40 1.61 1.69 1.68 1.62 1.54 1.48 1.37 1.32 1.34 1.35 1.27 1.17 1.04 1.01 0.99 0.95 0.94 0.91 0.87 0.80 0.73 0.65
0.55 0.58 0.46 0.32 0.27 0.27 0.32 0.31 0.25 0.17 0.20 0.21 0.24 0.26 0.32 0.40 0.43 0.50 0.57 0.70 0.82 0.88 1.00 1.14 1.25 1.37 1.42 1.49 1.69 1.72 1.72 1.65 1.62 1.49 1.45 1.47 1.44 1.41 1.36 1.24 1.09 0.98 0.94 0.96 0.98 0.94 0.89 0.80 0.69
0.75 0.83 0.67 0.36 0.29 0.31 0.45 0.41 0.23 0.22 0.29 0.29 0.29 0.32 0.39 0.47 0.49 0.53 0.57 0.73 0.92 0.96 1.04 1.23 1.35 1.45 1.47 1.46 1.64 1.74 1.77 1.80 1.76 1.72 1.63 1.62 1.61 1.56 1.51 1.44 1.32 1.19 1.07 1.00 0.99 0.95 0.90 0.84 0.76
1.06 0.93 0.63 0.40 0.32 0.38 0.47 0.45 0.29 0.26 0.35 0.37 0.37 0.37 0.42 0.52 0.55 0.58 0.61 0.71 0.83 0.91 1.05 1.28 1.39 1.45 1.51 1.51 1.60 1.76 1.77 1.79 1.86 1.91 1.84 1.79 1.80 1.73 1.64 1.56 1.52 1.50 1.37 1.19 1.07 1.02 0.92 0.83 0.77
1.02 0.74 0.52 0.44 0.36 0.40 0.46 0.41 0.31 0.31 0.37 0.36 0.38 0.39 0.42 0.49 0.50 0.58 0.65 0.75 0.82 0.92 1.09 1.31 1.50 1.57 1.59 1.65 1.65 1.77 1.90 1.76 1.69 1.79 1.85 1.86 1.91 1.87 1.82 1.69 1.59 1.64 1.59 1.47 1.30 1.16 1.06 0.93 0.84
0.70 0.69 0.55 0.41 0.39 0.44 0.44 0.42 0.37 0.33 0.35 0.33 0.29 0.35 0.43 0.45 0.48 0.58 0.67 0.81 0.90 0.99 1.10 1.28 1.46 1.58 1.61 1.64 1.63 1.58 1.69 1.74 1.59 1.50 1.66 1.85 1.96 2.06 2.06 1.90 1.78 1.73 1.66 1.51 1.43 1.39 1.30 1.16 1.02
0.74 0.75 0.58 0.42 0.42 0.52 0.50 0.47 0.38 0.32 0.34 0.31 0.29 0.32 0.41 0.46 0.50 0.57 0.65 0.78 0.87 0.99 1.06 1.22 1.44 1.54 1.52 1.49 1.55 1.55 1.58 1.64 1.65 1.52 1.54 1.68 1.91 2.12 2.30 2.18 1.99 1.86 1.78 1.69 1.56 1.49 1.48 1.40 1.21
0.77 0.66 0.54 0.53 0.54 0.62 0.66 0.63 0.39 0.32 0.31 0.31 0.33 0.35 0.43 0.47 0.51 0.56 0.62 0.72 0.85 1.00 1.05 1.08 1.30 1.57 1.59 1.56 1.67 1.72 1.80 1.82 1.80 1.66 1.52 1.56 1.68 1.84 1.97 2.07 1.95 1.93 1.87 1.80 1.70 1.57 1.53 1.56 1.42
0.73 0.43 0.45 0.56 0.76 0.81 0.73 0.90 0.49 0.34 0.32 0.31 0.35 0.42 0.45 0.48 0.51 0.57 0.63 0.74 0.83 0.98 1.16 1.17 1.23 1.46 1.67 1.66 1.64 1.63 1.71 1.70 1.69 1.62 1.50 1.50 1.61 1.72 1.78 1.87 1.92 1.80 1.73 1.68 1.66 1.62 1.51 1.54 1.57
0.56 0.39 0.47 0.64 0.85 0.88 0.70 0.89 0.57 0.35 0.37 0.31 0.30 0.35 0.39 0.45 0.54 0.60 0.66 0.78 0.90 1.03 1.22 1.31 1.34 1.36 1.55 1.61 1.56 1.54 1.54 1.58 1.68 1.69 1.60 1.53 1.60 1.72 1.78 1.79 1.85 1.89 1.78 1.62 1.57 1.60 1.61 1.56 1.51
0.53 0.61 0.76 0.89 1.20 1.26 0.57 0.60 0.60 0.48 0.49 0.38 0.32 0.36 0.38 0.46 0.58 0.63 0.70 0.84 0.98 1.11 1.27 1.38 1.44 1.36 1.41 1.62 1.59 1.48 1.44 1.44 1.54 1.65 1.73 1.69 1.64 1.68 1.75 1.80 1.76 1.76 1.81 1.78 1.62 1.54 1.58 1.56 1.50
0.84 1.22 1.85 1.97 1.81 1.04 0.32 0.38 0.55 0.46 0.45 0.41 0.39 0.42 0.41 0.46 0.57 0.64 0.72 0.86 0.95 1.06 1.20 1.34 1.38 1.38 1.37 1.51 1.61 1.51 1.40 1.39 1.37 1.44 1.56 1.64 1.65 1.61 1.63 1.71 1.74 1.68 1.66 1.71 1.70 1.61 1.58 1.56 1.55
0.87 1.06 1.46 1.42 0.91 0.44 0.26 0.40 0.47 0.39 0.33 0.33 0.34 0.39 0.40 0.41 0.49 0.58 0.67 0.80 0.90 0.94 1.04 1.20 1.29 1.29 1.32 1.45 1.61 1.62 1.48 1.45 1.34 1.34 1.43 1.50 1.51 1.48 1.46 1.50 1.56 1.53 1.48 1.51 1.58 1.57 1.52 1.53 1.56
0.80 0.83 0.76 1.03 0.68 0.46 0.38 0.36 0.36 0.27 0.24 0.27 0.30 0.34 0.38 0.40 0.46 0.52 0.62 0.67 0.73 0.84 0.93 1.04 1.22 1.31 1.31 1.34 1.53 1.73 1.71 1.56 1.43 1.31 1.35 1.40 1.41 1.43 1.47 1.46 1.44 1.37 1.34 1.33 1.36 1.40 1.38 1.41 1.46
0.70 0.77 0.93 1.29 1.07 0.65 0.39 0.35 0.48 0.38 0.34 0.30 0.31 0.33 0.34 0.39 0.48 0.53 0.57 0.60 0.65 0.75 0.84 0.93 1.11 1.24 1.29 1.29 1.36 1.56 1.79 1.73 1.61 1.55 1.38 1.36 1.37 1.40 1.45 1.47 1.44 1.37 1.28 1.29 1.30 1.26 1.22 1.28 1.32
0.74 0.93 1.11 1.17 0.93 0.81 0.53 0.47 0.51 0.44 0.38 0.34 0.32 0.31 0.32 0.36 0.44 0.48 0.51 0.59 0.64 0.70 0.81 0.91 1.02 1.13 1.19 1.20 1.25 1.34 1.56 1.74 1.75 1.68 1.52 1.36 1.35 1.33 1.31 1.34 1.38 1.35 1.29 1.27 1.33 1.31 1.24 1.26 1.26
0.67 0.80 0.96 1.21 0.92 0.63 0.61 0.53 0.36 0.30 0.31 0.30 0.30 0.29 0.31 0.35 0.38 0.43 0.47 0.56 0.60 0.67 0.78 0.85 0.94 1.07 1.15 1.17 1.21 1.27 1.36 1.51 1.72 1.66 1.52 1.35 1.31 1.32 1.33 1.30 1.32 1.30 1.30 1.29 1.31 1.30 1.24 1.24 1.23